Regional Weather Roundup
Issued by NWS Raleigh/Durham, NC

Home | Current Version | Previous Version | Text Only | Print | Product List | Glossary On
Versions: 1 2 3 4 5 6 7 8 9 10 11 12 13 14 15 16 17 18 19 20 21 22 23 24 25 26 27 28
000
ASUS42 KRAH 301310
RWRRAH
NORTH CAROLINA WEATHER ROUNDUP
NATIONAL WEATHER SERVICE RALEIGH NC
900 AM EDT THU OCT 30 2014

NOTE: "FAIR" INDICATES FEW OR NO CLOUDS BELOW 12,000 FEET WITH NO
SIGNIFICANT WEATHER AND/OR OBSTRUCTIONS TO VISIBILITY.

NCZ001-053-055-056-065-067-301400-
WESTERN NORTH CAROLINA

CITY           SKY/WX    TMP DP  RH WIND       PRES   REMARKS
ASHEVILLE      SUNNY     42  36  79 N7        30.10R
JEFFERSON      SUNNY     41  32  71 CALM      30.07R
MORGANTON      SUNNY     41  41 100 CALM      30.13R
HICKORY        SUNNY     45  43  93 CALM      30.08R
RUTHERFORDTON  SUNNY     42  39  89 W6        30.09R
MOUNT AIRY     SUNNY     47  42  82 CALM      30.10R
BOONE          SUNNY     41  35  78 W6        30.08R
$$

NCZ021-022-025-041-071-084-088-301400-
CENTRAL NORTH CAROLINA

CITY           SKY/WX    TMP DP  RH WIND       PRES   REMARKS
CHARLOTTE      SUNNY     52  42  69 N8        30.08R
GREENSBORO     MOSUNNY   52  40  63 NW6       30.07R
WINSTON-SALEM  SUNNY     53  38  56 N6        30.09R
RALEIGH-DURHAM MOSUNNY   53  48  83 CALM      30.06R
FORT BRAGG     SUNNY     55  50  83 N8        30.04R
FAYETTEVILLE   SUNNY     57  52  83 NE7       30.03R
BURLINGTON     SUNNY     51  44  77 CALM      30.06R
LAURINBURG     SUNNY     57  48  72 NE7       30.05R
$$

NCZ011-015-027-028-043-044-047-080-103-301400-
NORTHEASTERN NORTH CAROLINA

CITY           SKY/WX    TMP DP  RH WIND       PRES   REMARKS
ROCKY MT-WILSO SUNNY     54  53  97 N5        30.05R
GREENVILLE     CLOUDY    52  52 100 N3        30.06R
WASHINGTON     CLOUDY    53  51  94 N6        30.03R
ELIZABETH CITY CLOUDY    58  52  80 NW9       30.02R
MANTEO         CLOUDY    59  52  76 NE13      30.00R
CAPE HATTERAS  CLOUDY    61  56  83 NE12G18   29.98R
$$

NCZ078-087-090-091-093-098-101-301400-
SOUTHEASTERN NORTH CAROLINA

CITY           SKY/WX    TMP DP  RH WIND       PRES   REMARKS
LUMBERTON      SUNNY     58  52  80 N8        30.02S
GOLDSBORO      SUNNY     56  55  98 N8        30.02R
KINSTON        SUNNY     55  54  94 N8        30.04R
KENANSVILLE    MOSUNNY   56  52  86 N7        30.04R
NEW BERN       CLOUDY    58  51  78 N9        30.03R
CHERRY POINT   CLOUDY    58  53  84 N12       30.01R
BEAUFORT       CLOUDY    58  56  93 NE10      29.99R
JACKSONVILLE   CLOUDY    58  52  80 NE12      30.00R
WILMINGTON     CLOUDY    58  56  93 NE9       30.00R
$$




USA.gov is the U.S. government's official web portal to all federal, state and local government web resources and services.